{"data":{"norad_id":63973,"epoch":"2026-05-24T23:53:24.478944Z","epoch_age_seconds":65680,"freshness":"FRESH","line1":"1 63973U 25099X   26144.99542221  .00013705  00000+0  50640-3 0  9997","line2":"2 63973  43.0004 102.0411 0000396 290.7193  69.3617 15.27595211 59047","mean_motion":15.27595211,"eccentricity":3.96e-5,"inclination_deg":43.0004,"raan_deg":102.0411,"arg_perigee_deg":290.7193,"mean_anomaly_deg":69.3617,"bstar":0.0005064,"rev_number":5904,"period_min":94.26581005431,"perigee_km":482.73184804572,"apogee_km":483.27525037722,"semimajor_km":6861.1405492115,"source":"CELESTRAK","updated_at":"2026-05-25T13:38:20.215524Z"}}